Weather History for KCVX - April, 2013

Change the Weather History Date:

Saturday, April 6, 2013

  Actual Average Record
Temperature  
Mean Temperature 34 °F -  
Max Temperature 43 °F 48 °F 62 °F (2008)
Min Temperature 25 °F 32 °F 1 °F (2003)
Degree Days  
Heating Degree Days 31    
Moisture  
Dew Point 27 °F    
Average Humidity 78    
Maximum Humidity 96    
Minimum Humidity 58    
Precipitation  
Precipitation 0.00 in - - ()
Sea Level Pressure  
Sea Level Pressure 29.99 in    
Wind  
Wind Speed 7 mph (SE)    
Max Wind Speed 21 mph    
Max Gust Speed 32 mph    
Visibility 9 miles    
Events Rain , Snow    
Averages and records for this station are not official NWS values.
T = Trace of Precipitation, MM = Missing Value Source: NWS Daily Summary

Daily Weather History Graph

Daily Weather History Graph

Search for Another Location

Airport or City:

Trip Planner

Search our weather history database for the weather conditions in past years. The results will help you decide how hot, cold, wet, or windy it might be!

Date:

Astronomy

Apr. 06, 2013 Rise Set
Actual Time 7:11 AM EDT 8:15 PM EDT
Civil Twilight 6:41 AM EDT 8:46 PM EDT
Nautical Twilight 6:05 AM EDT 9:22 PM EDT
Astronomical Twilight 5:27 AM EDT 10:00 PM EDT
Moon 5:05 AM EDT (4/6) 4:34 PM EDT (4/6)
Length of Visible Light 14h 04m
Length of Day
13h 04m
Waning Crescent, 15% of the Moon is Illuminated
Apr 6
Waning Crescent
Apr 10
New
Apr 18
First Quarter
Apr 25
Full
May 2
Last Quarter

Hourly Weather History & Observations

Time (EDT) Temp. Windchill Dew Point Humidity Pressure Visibility Wind Dir Wind Speed Gust Speed Precip Events Conditions
12:14 AM 27.3 °F - 22.3 °F 81% 30.23 in 10.0 mi Calm Calm - N/A   Clear
12:34 AM 27.1 °F - 22.1 °F 81% 30.23 in 10.0 mi Calm Calm - N/A   Clear
12:54 AM 27.0 °F - 22.5 °F 83% 30.23 in 10.0 mi Calm Calm - N/A   Clear
1:14 AM 25.9 °F - 22.6 °F 88% 30.23 in 10.0 mi Calm Calm - N/A   Clear
1:35 AM 26.6 °F 22.6 °F 22.1 °F 83% 30.23 in 10.0 mi SE 3.5 mph - N/A   Scattered Clouds
1:54 AM 27.0 °F - 21.9 °F 81% 30.23 in 10.0 mi Calm Calm - N/A   Clear
2:15 AM 27.0 °F 23.0 °F 21.6 °F 80% 30.23 in 10.0 mi ESE 3.5 mph - N/A   Scattered Clouds
2:34 AM 27.5 °F 22.2 °F 21.2 °F 77% 30.22 in 10.0 mi ESE 4.6 mph - N/A   Scattered Clouds
2:54 AM 27.0 °F - 21.2 °F 79% 30.22 in 10.0 mi Calm Calm - N/A   Clear
3:14 AM 26.8 °F - 21.2 °F 79% 30.22 in 10.0 mi Calm Calm - N/A   Clear
3:34 AM 27.0 °F - 21.6 °F 80% 30.22 in 10.0 mi Calm Calm - N/A   Scattered Clouds
3:54 AM 27.3 °F 23.4 °F 21.7 °F 80% 30.22 in 10.0 mi ESE 3.5 mph - N/A   Overcast
4:14 AM 27.5 °F 23.6 °F 21.2 °F 77% 30.22 in 10.0 mi ESE 3.5 mph - N/A   Mostly Cloudy
4:35 AM 27.5 °F 23.6 °F 21.2 °F 77% 30.22 in 10.0 mi ESE 3.5 mph - N/A   Scattered Clouds
4:54 AM 27.3 °F 23.4 °F 21.6 °F 79% 30.22 in 10.0 mi ESE 3.5 mph - N/A   Overcast
5:14 AM 27.9 °F 24.0 °F 22.1 °F 79% 30.21 in 10.0 mi East 3.5 mph - N/A   Overcast
5:34 AM 27.7 °F 23.8 °F 22.8 °F 82% 30.21 in 10.0 mi ESE 3.5 mph - N/A   Overcast
5:54 AM 27.5 °F 21.1 °F 23.0 °F 83% 30.20 in 10.0 mi ESE 5.8 mph - N/A   Overcast
6:15 AM 27.9 °F 21.5 °F 22.8 °F 81% 30.20 in 10.0 mi ESE 5.8 mph - N/A   Overcast
6:34 AM 28.0 °F 21.7 °F 22.1 °F 78% 30.19 in 10.0 mi ESE 5.8 mph - N/A   Overcast
6:54 AM 28.4 °F 21.2 °F 21.4 °F 75% 30.19 in 10.0 mi ESE 6.9 mph - N/A   Overcast
7:15 AM 28.9 °F 21.9 °F 20.3 °F 70% 30.19 in 10.0 mi ESE 6.9 mph - N/A   Overcast
7:34 AM 28.9 °F 22.8 °F 20.5 °F 71% 30.18 in 10.0 mi ESE 5.8 mph - N/A   Overcast
7:55 AM 29.3 °F 23.2 °F 20.1 °F 69% 30.17 in 10.0 mi ESE 5.8 mph - N/A   Overcast
8:14 AM 30.0 °F 22.4 °F 19.6 °F 65% 30.17 in 10.0 mi SE 8.1 mph - N/A   Overcast
8:34 AM 30.9 °F 23.5 °F 18.1 °F 59% 30.16 in 10.0 mi SE 8.1 mph - N/A   Overcast
8:55 AM 31.5 °F 22.9 °F 18.1 °F 58% 30.16 in 10.0 mi SE 10.4 mph - N/A   Overcast
9:14 AM 31.8 °F 24.6 °F 18.5 °F 58% 30.16 in 10.0 mi SSE 8.1 mph - N/A   Overcast
9:34 AM 31.8 °F 25.4 °F 21.0 °F 64% 30.15 in 4.0 mi SSE 6.9 mph - N/A Snow Light Snow
9:55 AM 30.2 °F 23.4 °F 26.1 °F 85% 30.15 in 1.0 mi SE 6.9 mph - N/A Snow Light Snow
10:14 AM 30.2 °F 23.4 °F 27.9 °F 91% 30.14 in 1.0 mi SE 6.9 mph - N/A Snow Light Snow
10:34 AM 30.2 °F 21.9 °F 29.1 °F 96% 30.13 in 1.0 mi ESE 9.2 mph - N/A Snow Light Snow
10:54 AM 30.2 °F 20.8 °F 29.3 °F 96% 30.12 in 2.5 mi SE 11.5 mph - N/A Snow Light Snow
11:14 AM 30.7 °F 20.9 °F 29.1 °F 94% 30.11 in 2.0 mi SE 12.7 mph - N/A Snow Light Snow
11:35 AM 31.5 °F 22.3 °F 30.0 °F 94% 30.10 in 1.2 mi SE 11.5 mph - N/A Snow Light Snow
11:54 AM 32.0 °F 23.0 °F 30.2 °F 93% 30.09 in 2.5 mi SE 11.5 mph 16.1 mph N/A Snow Light Snow
12:14 PM 32.9 °F 24.1 °F 31.1 °F 93% 30.06 in 7.0 mi ESE 11.5 mph - N/A   Overcast
12:35 PM 33.8 °F 24.8 °F 30.9 °F 89% 30.04 in 10.0 mi ESE 12.7 mph - N/A   Overcast
12:54 PM 34.9 °F 25.7 °F 30.2 °F 83% 30.03 in 10.0 mi SE 13.8 mph 18.4 mph N/A   Overcast
1:14 PM 35.6 °F 25.9 °F 29.8 °F 80% 30.02 in 10.0 mi SE 16.1 mph 23.0 mph N/A   Overcast
1:35 PM 35.8 °F 25.7 °F 29.3 °F 77% 30.00 in 10.0 mi SE 17.3 mph 24.2 mph N/A   Overcast
1:54 PM 35.8 °F 26.1 °F 29.3 °F 77% 29.98 in 10.0 mi ESE 16.1 mph 20.7 mph N/A   Overcast
2:14 PM 36.1 °F 26.2 °F 28.6 °F 74% 29.98 in 10.0 mi SE 17.3 mph 24.2 mph N/A   Overcast
2:35 PM 36.1 °F 26.9 °F 27.9 °F 72% 29.96 in 10.0 mi SE 15.0 mph 26.5 mph N/A   Overcast
2:54 PM 36.0 °F 26.3 °F 28.4 °F 74% 29.94 in 5.0 mi SE 16.1 mph 21.9 mph N/A Snow Light Snow
3:15 PM 35.2 °F 27.1 °F 30.2 °F 82% 29.93 in 5.0 mi SE 11.5 mph 19.6 mph N/A Rain Light Rain
3:34 PM 35.6 °F 26.6 °F 30.9 °F 83% 29.89 in 7.0 mi SE 13.8 mph - N/A Rain Light Rain
3:54 PM 35.6 °F 26.2 °F 31.1 °F 84% 29.87 in 5.0 mi SE 15.0 mph 23.0 mph N/A Rain Light Rain
4:15 PM 35.6 °F 25.2 °F 31.5 °F 85% 29.84 in 7.0 mi ESE 18.4 mph 24.2 mph N/A   Light Drizzle
4:34 PM 36.5 °F 26.3 °F 31.5 °F 82% 29.82 in 10.0 mi SE 18.4 mph 26.5 mph N/A   Overcast
4:54 PM 36.7 °F 26.9 °F 30.4 °F 78% 29.80 in 10.0 mi SE 17.3 mph 27.6 mph N/A   Overcast
5:14 PM 36.5 °F 25.7 °F 30.7 °F 80% 29.76 in 10.0 mi SE 20.7 mph 32.2 mph N/A   Light Drizzle
5:34 PM 37.6 °F 27.4 °F 30.4 °F 75% 29.75 in 10.0 mi SE 19.6 mph 29.9 mph N/A   Mostly Cloudy
5:55 PM 38.3 °F 29.7 °F 30.0 °F 72% 29.76 in 10.0 mi SE 15.0 mph 31.1 mph N/A   Overcast
6:14 PM 38.3 °F 29.7 °F 29.5 °F 71% 29.77 in 10.0 mi SE 15.0 mph 24.2 mph N/A   Overcast
6:35 PM 38.3 °F 29.7 °F 29.7 °F 71% 29.78 in 10.0 mi SSE 15.0 mph 21.9 mph N/A   Light Drizzle
6:54 PM 38.8 °F 29.7 °F 29.5 °F 69% 29.76 in 10.0 mi SE 17.3 mph 25.3 mph N/A   Overcast
7:14 PM 37.6 °F 27.7 °F 31.1 °F 77% 29.74 in 7.0 mi SE 18.4 mph 21.9 mph N/A   Drizzle
7:35 PM 36.9 °F 27.5 °F 31.3 °F 80% 29.72 in 10.0 mi SE 16.1 mph 24.2 mph N/A   Overcast
7:54 PM 37.6 °F 28.4 °F 30.9 °F 77% 29.72 in 10.0 mi SE 16.1 mph 21.9 mph N/A   Overcast
8:14 PM 38.3 °F 29.3 °F 30.4 °F 73% 29.72 in 10.0 mi SE 16.1 mph 20.7 mph N/A   Overcast
8:35 PM 38.5 °F 30.3 °F 30.0 °F 72% 29.72 in 10.0 mi SE 13.8 mph 18.4 mph N/A   Light Drizzle
8:54 PM 39.2 °F 31.6 °F 29.7 °F 69% 29.70 in 10.0 mi SE 12.7 mph - N/A Rain Rain
9:14 PM 38.5 °F 29.9 °F 30.4 °F 73% 29.69 in 10.0 mi SE 15.0 mph 20.7 mph N/A   Drizzle
9:35 PM 37.2 °F 28.7 °F 31.8 °F 81% 29.68 in 7.0 mi SE 13.8 mph 21.9 mph N/A Rain Light Rain
9:54 PM 36.9 °F 28.2 °F 32.0 °F 83% 29.66 in 10.0 mi SE 13.8 mph 17.3 mph N/A   Light Drizzle
10:14 PM 37.8 °F 29.4 °F 31.3 °F 77% 29.64 in 10.0 mi SE 13.8 mph - N/A   Overcast
10:34 PM 38.3 °F 29.3 °F 31.1 °F 75% 29.62 in 10.0 mi SE 16.1 mph 21.9 mph N/A Rain Light Rain
10:54 PM 39.2 °F 30.2 °F 30.7 °F 72% 29.61 in 10.0 mi SE 17.3 mph - N/A   Overcast
11:14 PM 40.8 °F 33.3 °F 30.4 °F 66% 29.60 in 10.0 mi SE 13.8 mph 18.4 mph N/A   Overcast
11:34 PM 43.0 °F 36.4 °F 30.0 °F 60% 29.59 in 10.0 mi SSE 12.7 mph 19.6 mph N/A   Overcast
11:54 PM 43.7 °F 37.3 °F 30.2 °F 59% 29.57 in 10.0 mi SE 12.7 mph 17.3 mph N/A   Overcast